Tracking 19199 objects as of 25-Jun-2018
HD Live streaming from Space Station
objects crossing your sky now

FENGYUN 1C DEB

Track FENGYUN 1C DEB now!
10-day predictions


NORAD ID: 37920
Int'l Code: 1999-025ENV
Perigee: 820.1 km
Apogee: 917.2 km
Inclination: 99.0 °
Period: 102.2 minutes
Semi major axis: 7239 km
RCS: 0.0026 m2 (small)
Launch date: May 10, 1999
Source: People's Republic of China (PRC)
Launch site: Taiyaun Space Center, China (TSC)

Note: This is SATELLITE DEBRIS
aabbcc
Your satellite tracking list
Your tracking list is empty




NASA's NSSDC Master Catalog

Two Line Element Set (TLE):
1 37920U 99025ENV 18175.60360003 +.00000439 +00000-0 +27165-3 0  9996
2 37920 099.0181 215.6728 0067099 031.2862 119.6823 14.09369982255941
Source of the keplerian elements: AFSPC